RH
30 29 34 35 30 31 36 37 38 39 36 37 38 38 38 37 40 42 44 46 50 53 50 49 51 51 46 46 49 48 50 51 62 53 48 47 51 52 50 52 52 49 51
30 30 38 33 35 36 34 36 42 40 40 39 37 37 37 36 38 39 42 47 49 47 49 50 47 38 51 47 48 48 49 48 55 62 54 54 53 52 52 53 45 40 48
31 35 37 38 38 38 39 40 40 40 39 37 37 36 36 38 37 38 39 43 47 49 51 50 49 50 55 53 48 48 52 47 56 61 63 56 55 52 51 49 49 51 42
34 38 40 39 39 38 41 44 43 41 40 38 38 37 37 37 34 35 37 45 48 50 51 51 48 46 52 52 55 60 57 64 66 65 64 61 57 53 54 56 54 51 52
35 38 38 42 39 41 49 53 52 49 40 39 39 39 37 36 31 32 43 52 56 52 49 44 45 48 55 58 59 65 67 75 76 77 69 65 61 57 58 56 57 57 54
38 40 35 44 53 66 66 64 58 55 51 49 49 48 46 33 34 52 62 61 56 51 50 45 41 53 46 51 57 59 60 76 83 88 74 68 64 59 56 57 57 61 67
55 64 68 64 70 71 71 66 59 57 52 52 50 47 48 45 47 58 66 62 59 55 50 47 44 39 52 44 50 57 60 61 62 62 76 72 64 57 55 59 60 64 68
68 77 74 72 75 75 74 69 61 56 57 55 53 50 48 46 52 60 67 64 61 54 52 51 51 49 49 55 58 69 71 70 68 60 64 65 63 63 66 67 76 86 84
70 73 74 72 78 77 80 73 64 64 64 68 65 75 76 71 60 65 67 70 67 65 57 55 53 54 61 65 67 79 79 75 67 82 81 76 71 71 70 78 91 87 85
67 68 71 76 81 82 78 78 75 74 75 66 75 75 80 83 68 68 67 75 83 74 70 55 66 60 61 62 74 94 92 77 72 78 79 71 64 63 63 62 71 86 90
76 77 79 80 84 81 81 78 83 84 71 80 79 79 80 78 77 71 72 76 78 79 77 71 61 61 62 71 66 75 78 70 83 85 79 74 72 71 67 65 63 71 86
83 85 88 89 86 86 86 87 86 86 87 88 86 81 70 73 73 70 74 72 70 81 83 69 66 65 73 66 68 67 70 72 80 83 83 81 76 71 66 63 61 63 63
88 91 92 91 88 89 90 89 85 87 81 79 75 76 67 60 65 66 71 71 69 74 72 68 74 73 70 66 68 71 74 76 81 86 84 77 68 63 62 68 69 72 72
89 91 92 91 90 91 81 79 84 82 81 80 78 78 73 67 66 68 75 77 75 77 75 86 76 70 64 66 71 64 69 74 78 81 79 70 67 72 77 73 81 80 82
88 89 89 86 88 86 80 77 75 75 74 83 83 83 85 84 78 69 75 87 84 80 93 94 90 80 78 75 76 76 74 75 79 78 81 82 81 79 79 74 78 83 89
88 86 81 79 80 76 75 75 68 68 66 69 69 78 87 80 76 72 71 67 66 83 94 94 88 83 81 79 82 81 78 79 79 82 86 85 87 86 85 80 79 84 89
86 84 78 79 75 75 73 73 77 66 69 72 73 73 72 71 70 68 68 66 72 80 95 92 89 86 86 81 83 83 84 80 83 85 87 88 88 88 88 87 84 84 87
90 87 81 77 74 74 75 76 77 80 84 79 69 73 73 72 72 71 69 69 95 88 93 92 92 91 88 88 86 87 86 86 87 88 89 90 89 91 90 88 88 90 89
84 77 76 75 74 76 74 73 77 77 79 81 80 74 81 76 75 74 73 94 94 93 92 92 91 91 89 89 90 89 90 91 90 92 91 91 89 91 90 87 87 85 86
85 87 79 78 76 78 74 75 75 76 78 81 82 81 81 90 91 89 90 93 93 91 90 91 91 91 91 91 91 90 91 91 91 91 91 90 90 90 91 90 89 91 89
82 83 82 79 82 82 80 80 77 82 82 82 80 77 76 91 90 88 88 91 91 90 90 91 91 90 91 91 92 92 92 91 90 91 92 91 91 93 89 90 90 89 90
80 82 83 84 80 80 84 81 83 83 81 80 76 76 76 82 89 88 91 90 88 88 93 94 92 90 91 93 93 93 94 93 92 91 93 91 92 92 91 91 89 89 89
79 80 82 83 83 84 86 87 86 84 84 83 82 80 81 84 84 86 85 85 87 89 92 93 91 91 90 92 91 93 96 94 92 93 95 94 93 93 92 93 92 92 91
81 81 82 84 86 85 85 85 83 85 84 85 85 84 83 86 92 92 93 94 94 90 92 93 92 92 90 92 90 90 91 91 92 94 95 95 95 93 93 93 92 92 93
85 86 86 86 91 88 89 89 87 88 89 89 89 89 88 90 93 94 94 95 95 91 90 91 91 92 92 92 91 90 88 89 90 90 95 95 95 94 95 95 95 93 93
88 89 90 90 91 91 92 90 89 88 89 89 88 88 89 92 92 93 94 95 90 90 92 91 91 91 90 88 86 90 89 95 91 92 94 94 95 96 99 98 98 96 95
Wind_Speed
9 9 8 8 9 8 7 7 7 7 6 6 5 5 5 4 4 4 4 4 5 4 5 5 6 6 5 6 6 6 6 6 11 14 10 11 15 15 14 14 13 14 12
10 10 8 9 8 8 8 8 7 6 5 6 4 4 3 2 2 2 2 3 4 6 6 7 7 6 7 7 6 8 8 8 9 17 13 11 12 14 15 17 13 12 13
10 10 10 9 9 8 8 7 7 7 6 5 3 3 1 1 1 2 2 4 5 6 6 7 8 8 7 6 7 8 7 8 9 10 15 10 11 11 13 14 14 14 11
11 11 11 11 10 9 8 8 7 6 6 5 3 1 1 2 3 4 4 5 6 6 7 7 8 8 8 8 8 9 9 8 9 10 12 12 11 11 11 12 12 10 12
12 12 11 10 9 9 8 7 6 5 5 4 3 2 3 3 4 4 5 6 7 8 8 8 8 8 13 12 8 8 9 9 9 10 12 12 11 11 11 11 12 12 12
13 13 11 11 8 7 8 7 7 6 5 5 4 4 5 4 5 6 8 8 9 9 9 8 8 9 11 14 15 17 14 11 11 10 12 13 15 14 12 12 11 12 14
11 8 7 9 10 9 8 8 8 7 6 5 6 6 6 6 8 9 11 9 9 9 9 9 9 7 9 10 13 17 17 19 21 16 17 16 17 14 15 15 14 14 15
10 9 9 10 10 10 9 9 8 7 7 6 6 7 7 6 9 11 12 10 9 10 9 9 10 11 10 11 12 13 13 13 15 13 16 17 17 16 17 17 17 18 15
10 11 11 11 11 11 10 10 8 7 6 6 5 6 6 6 10 12 11 8 9 9 9 10 10 10 14 18 13 13 14 14 16 23 24 28 30 29 22 13 10 12 14
11 12 10 10 10 11 10 10 8 6 6 6 7 7 7 7 11 13 12 7 7 7 8 10 13 13 17 20 13 11 13 14 16 15 14 17 20 18 26 16 11 13 13
6 6 8 9 9 9 8 7 7 7 6 7 7 6 7 8 9 15 14 8 7 7 7 7 6 15 18 18 21 12 13 17 16 12 12 11 11 11 10 10 11 10 11
6 6 7 7 6 6 8 7 7 7 6 6 6 6 6 8 12 13 15 14 13 8 8 7 8 17 15 21 18 19 21 17 8 8 9 10 10 10 10 10 13 13 12
6 6 6 7 7 7 8 7 6 6 6 6 6 6 6 5 6 14 15 15 14 10 7 13 16 12 16 13 15 18 11 6 7 8 9 9 9 10 14 13 13 15 15
6 6 6 7 7 6 5 6 6 7 7 6 6 6 5 5 5 5 5 7 12 11 13 3 6 10 12 11 7 8 6 6 6 8 8 10 10 10 10 9 11 11 12
6 6 6 6 7 7 7 7 7 7 8 6 6 5 5 5 5 8 9 7 6 10 5 2 2 4 5 5 5 5 6 6 7 7 8 10 10 10 10 10 10 11 12
6 5 6 6 6 6 5 5 13 13 12 14 14 10 6 13 14 16 17 14 17 8 1 2 4 4 5 5 6 6 6 7 6 7 9 9 10 10 11 11 10 10 12
6 6 5 4 4 4 4 4 4 6 13 15 16 17 17 16 17 16 15 17 8 1 3 3 4 4 5 5 6 6 7 7 8 8 8 9 9 10 12 11 11 11 11
4 5 4 4 3 3 3 3 3 4 4 4 9 11 13 14 15 16 17 12 3 3 2 4 4 4 5 5 6 6 7 7 7 8 8 9 9 10 11 11 11 12 12
4 4 3 3 2 1 1 2 3 4 5 5 4 7 8 13 13 14 16 3 2 2 3 4 4 4 5 5 6 6 7 7 8 9 9 9 9 10 11 11 11 16 16
4 6 3 3 3 2 2 3 4 5 5 5 5 6 4 2 4 5 5 4 4 4 4 4 4 5 5 5 5 6 7 8 8 8 8 9 9 10 11 12 11 12 12
3 4 2 2 2 1 2 3 4 4 5 6 6 6 12 7 6 6 7 5 5 5 5 4 4 5 5 5 5 6 7 7 7 8 8 9 9 10 11 11 11 12 12
3 2 2 1 0 1 2 3 4 5 6 7 6 7 16 8 7 7 4 4 4 5 3 3 4 5 5 4 5 6 7 8 8 8 8 9 9 10 11 11 11 11 11
3 3 2 1 1 1 2 3 4 5 6 7 7 6 6 6 6 6 5 5 5 5 3 4 5 6 5 4 5 6 7 8 7 8 9 9 9 10 11 10 10 11 10
2 1 1 1 2 2 3 4 4 5 6 7 7 7 7 7 7 7 6 5 5 5 4 4 6 8 7 6 6 6 7 8 7 9 11 10 10 11 9 9 9 11 10
1 1 2 2 2 3 3 4 4 5 6 6 7 7 7 7 7 6 6 5 5 5 6 6 6 8 9 10 10 10 12 15 11 12 10 12 14 12 8 7 8 9 9
2 2 2 2 3 3 3 4 5 6 6 6 6 7 7 6 6 6 5 5 5 6 6 6 7 10 10 9 11 13 13 15 13 15 12 10 8 5 4 5 8 6 7
Wind_Direction
164 152 143 144 151 152 148 148 149 144 140 122 114 100 75 60 46 32 24 2 349 336 321 328 317 324 318 317 315 306 298 297 289 295 299 306 309 304 310 309 308 303 296
169 163 163 162 163 167 165 160 154 144 134 123 114 103 91 78 52 13 346 332 324 316 320 315 311 320 310 311 307 306 302 301 295 295 302 306 304 308 300 302 306 306 306
175 175 174 174 177 181 171 162 161 148 135 117 124 135 129 47 344 295 286 306 300 300 300 302 304 309 304 304 302 301 305 303 296 290 296 300 301 306 303 295 295 298 296
183 185 183 180 186 184 166 167 162 152 150 152 156 159 251 282 273 273 277 284 286 286 289 286 289 290 290 303 304 300 300 302 301 295 296 302 304 303 297 305 301 303 303
188 193 189 185 188 180 167 169 152 157 167 166 174 210 242 255 266 280 292 288 283 283 284 283 278 290 294 286 288 292 303 300 299 296 292 296 302 305 302 305 297 300 299
192 196 190 184 175 163 163 168 165 171 172 170 200 218 242 254 264 272 277 284 281 278 280 281 286 286 283 292 293 292 289 290 284 284 288 286 290 293 291 293 296 301 298
190 184 175 165 167 176 171 173 182 182 182 194 210 220 235 247 259 260 272 275 277 276 279 283 285 285 291 290 295 295 288 281 279 282 279 274 282 286 290 287 283 281 280
187 174 173 171 176 175 176 184 184 181 187 203 214 224 237 244 251 256 271 271 271 272 274 278 281 287 287 296 288 280 278 272 266 265 266 272 273 275 271 273 272 269 270
187 191 185 183 182 179 186 184 179 181 189 206 210 216 226 241 252 254 263 268 268 273 275 273 272 281 283 284 293 292 287 283 284 293 297 297 296 296 300 296 292 293 287
195 198 185 182 181 187 187 180 173 179 196 202 218 217 219 239 251 252 251 255 262 266 271 273 266 275 293 297 299 302 309 310 304 301 302 297 293 286 287 286 286 281 283
162 152 163 174 181 183 173 169 162 174 199 204 218 229 234 231 240 246 246 252 261 272 275 281 284 289 295 307 312 318 303 305 315 313 303 296 294 293 290 285 284 285 285
148 155 155 157 161 163 162 158 167 180 192 210 226 239 235 225 229 244 247 252 262 268 274 278 282 290 308 313 316 306 313 325 308 304 305 302 304 304 302 302 298 289 279
150 159 150 148 163 163 167 169 177 189 210 212 218 225 233 204 214 238 248 260 265 265 271 271 296 313 318 313 305 310 326 309 307 307 305 300 299 305 304 299 297 288 284
165 161 151 162 170 167 184 185 192 193 202 218 226 232 234 223 223 224 228 245 260 267 268 307 296 309 309 301 301 312 307 303 306 300 302 307 306 304 298 299 298 302 299
168 160 171 183 187 187 206 196 202 210 210 209 218 220 227 234 237 232 233 234 251 260 278 228 285 309 302 292 297 300 300 304 304 306 312 304 300 303 302 304 301 301 293
174 171 186 186 180 208 200 223 236 236 233 242 245 226 225 237 244 253 264 268 274 299 355 280 284 284 284 293 299 301 301 301 308 314 299 298 303 304 304 303 299 300 298
194 170 172 188 189 198 210 227 243 224 243 253 256 259 263 263 263 265 272 270 283 80 221 256 267 271 278 287 291 294 297 300 308 294 300 301 302 302 305 301 301 301 299
117 96 154 171 200 197 211 236 256 271 269 255 248 259 269 267 265 262 265 270 202 180 190 247 253 263 270 278 286 291 295 299 299 298 302 298 300 302 306 303 301 305 301
135 131 138 121 126 83 247 238 248 262 267 270 274 271 264 267 267 263 260 270 245 224 221 239 244 256 267 273 277 283 285 288 293 295 291 298 301 302 303 302 303 305 302
91 89 97 131 147 177 222 246 260 260 262 262 260 258 259 172 243 240 230 221 235 235 234 235 241 251 256 264 273 280 284 287 290 291 293 297 298 299 304 301 305 306 304
108 120 90 131 165 206 243 260 265 265 263 262 261 258 249 233 248 240 233 212 228 236 234 230 240 250 252 260 265 272 275 280 284 288 292 294 299 301 300 296 303 304 301
101 108 125 129 288 267 266 265 270 270 270 272 275 272 273 274 267 267 248 242 233 238 226 231 246 249 248 253 262 270 274 277 282 287 290 296 298 295 296 301 307 308 308
118 126 128 136 212 258 258 245 256 264 270 269 272 271 264 257 254 257 254 246 242 245 231 230 246 256 249 243 247 254 265 271 276 284 288 290 293 293 292 307 310 311 313
107 120 201 240 245 266 266 260 264 264 263 265 270 266 259 257 253 250 249 250 246 244 234 234 238 247 258 252 255 254 256 262 266 275 278 277 281 288 295 304 307 310 310
164 198 216 243 259 256 267 263 267 265 266 266 268 266 265 256 255 255 255 247 241 243 245 241 244 247 248 250 254 256 262 271 267 266 269 265 268 278 291 297 302 311 312
217 227 247 249 249 252 262 268 271 273 274 274 273 273 269 267 265 264 262 252 246 245 243 248 249 247 253 260 262 261 263 267 270 266 270 278 278 271 273 288 298 306 313